Content
SEND FEEDBACK

Daily
Averages
Monthly
Summary
United States of America

BOSTON, MASSACHUSETTS


Home > North America > United States > Massachusetts
Elevation: 1 meter     Latitude: 42 22N     Longitude: 071 02W

WEATHER
 
SELECT A DAY
Number of Records: 202,845;   Date Range: 1/1/95 - 8/25/14
 
SHARE

PRINT THIS DATA

[ ← Previous Day ]
WEATHER ALMANAC - 14 AUGUST, 2013
[ Next Day → ]
[ °F ]   °C
Weather ElementAverageHighLow
Temperature20.9 °C24.4 °C (2:54 pm)18.3 °C (5:54 am)
Dewpoint10.7 °C17.2 °C (2:54 am)8.3 °C (7:54 am)
Humidity53.7 %84 % (1:54 am)38 % (2:54 pm)
Barometer1007.8 hPa1014.6 hPa (11:54 pm)1004.7 hPa (2:54 am)
Wind Speed23 km/h35.2 km/h (4:54 pm)
Wind Gust46.3 km/h (1:54 pm)
Weather ElementAverage
Visibility16.1 km
Wind DirectionWNW (283.9 °)

Weather ElementTotal
Precipitation---
Cooling Degree Days3 (Base 18.3)
Growing Degree Days11.3 (Base 10)
Averaged from 23 records on 14 August, 2013
WEATHER CONDITIONS BREAKOUT
WIND DIRECTION BREAKOUT
WEATHER BY HOUR - 14 AUGUST, 2013
[ °F ]   °C
Local TimeTemperatureDewpointHumidityBarometerVisibilityWind DirectionWind SpeedGust SpeedPrecipitationEventsConditions
1:54 AM19.4 °C16.7 °C84 %1005.1 hPa16.1 kmSW (220°)14.8 km/hScattered Clouds
2:54 AM20 °C17.2 °C84 %1004.7 hPa16.1 kmWSW (240°)11.1 km/hMostly Cloudy
3:54 AM20.6 °C17.2 °C81 %1005.1 hPa16.1 kmWest (280°)20.4 km/hMostly Cloudy
4:54 AM19.4 °C15 °C76 %1005.1 hPa16.1 kmWest (280°)22.2 km/hOvercast
5:54 AM18.3 °C11.1 °C63 %1005.8 hPa16.1 kmWest (280°)24.1 km/h37 km/hScattered Clouds
6:54 AM18.3 °C9.4 °C56 %1006.4 hPa16.1 kmWNW (300°)22.2 km/h35.2 km/hPartly Cloudy
7:54 AM18.3 °C8.3 °C52 %1006.8 hPa16.1 kmWNW (290°)31.5 km/h40.7 km/hPartly Cloudy
8:54 AM19.4 °C8.3 °C49 %1006.4 hPa16.1 kmWNW (290°)27.8 km/h37 km/hPartly Cloudy
9:54 AM20 °C8.3 °C47 %1006.4 hPa16.1 kmWNW (290°)24.1 km/h40.7 km/hScattered Clouds
10:54 AM21.1 °C9.4 °C47 %1006.4 hPa16.1 kmWest (270°)22.2 km/h33.3 km/hScattered Clouds
11:54 AM22.2 °C9.4 °C44 %1006.4 hPa16.1 kmWest (280°)24.1 km/h40.7 km/hPartly Cloudy
12:54 PM23.3 °C10 °C43 %1006.8 hPa16.1 kmWest (280°)25.9 km/h40.7 km/hPartly Cloudy
1:54 PM23.3 °C8.9 °C40 %1006.8 hPa16.1 kmWest (270°)25.9 km/h46.3 km/hPartly Cloudy
2:54 PM24.4 °C9.4 °C38 %1006.8 hPa16.1 kmNW (310°)22.2 km/h46.3 km/hScattered Clouds
3:54 PM23.3 °C8.9 °C40 %1007.1 hPa16.1 kmNW (310°)31.5 km/h42.6 km/hScattered Clouds
4:54 PM23.9 °C9.4 °C40 %1007.5 hPa16.1 kmWest (280°)35.2 km/h46.3 km/hScattered Clouds
5:54 PM23.9 °C9.4 °C40 %1008.1 hPa16.1 kmWNW (290°)27.8 km/h44.4 km/hScattered Clouds
6:54 PM22.8 °C9.4 °C42 %1009.5 hPa16.1 kmWNW (300°)25.9 km/h37 km/hPartly Cloudy
7:54 PM21.1 °C10.6 °C51 %1010.5 hPa16.1 kmWest (280°)20.4 km/h31.5 km/hPartly Cloudy
8:54 PM20.6 °C10.6 °C53 %1011.9 hPa16.1 kmWNW (300°)14.8 km/h31.5 km/hPartly Cloudy
9:54 PM20 °C10.6 °C55 %1012.9 hPa16.1 kmNW (310°)22.2 km/hClear
10:54 PM18.9 °C9.4 °C54 %1013.9 hPa16.1 kmWNW (300°)14.8 km/h33.3 km/hClear
11:54 PM18.3 °C9.4 °C56 %1014.6 hPa16.1 kmWest (280°)16.7 km/hClear
Hourly data recorded from KBOS, located 0 kilometers away from Boston, Massachusetts







STORIES FROM OUR PARTNERS